| time (UTC) | temp F | wind direction | speed knots | gust knots | rain 1hr in | rain 24hr in | rain mn in | humidity % | barometer mb |
| 20260505041555 | 61 | 170 | 0.0 | 0.0 | 0.01 | 0.40 | 0.06 | 94 | 1008.8 |
| 20260505040041 | 61 | 170 | 0.0 | 6.1 | 0.01 | 0.40 | 0.06 | 95 | 1008.6 |
| 20260505034533 | 62 | 170 | 3.5 | 7.0 | 0.00 | 0.39 | 0.05 | 94 | 1008.6 |
| 20260505033018 | 62 | 163 | 5.2 | 9.6 | 0.04 | 0.39 | 0.05 | 95 | 1008.3 |
| 20260505031513 | 62 | 167 | 5.2 | 8.7 | 0.05 | 0.39 | 0.05 | 95 | 1008.4 |
| 20260505030058 | 62 | 163 | 3.5 | 7.0 | 0.05 | 0.39 | 0.05 | 95 | 1008.4 |
| 20260505024553 | 62 | 168 | 2.6 | 9.6 | 0.05 | 0.39 | 0.05 | 94 | 1008.7 |
| 20260505023034 | 62 | 144 | 2.6 | 8.7 | 0.01 | 0.35 | 0.01 | 94 | 1009.2 |
| 20260505021533 | 62 | 148 | 5.2 | 12.2 | 0.00 | 0.34 | 0.00 | 94 | 1008.9 |
| 20260505020014 | 62 | 141 | 7.8 | 19.1 | 0.00 | 0.34 | 0.00 | 94 | 1008.8 |
| 20260505014512 | 62 | 150 | 11.3 | 20.0 | 0.00 | 0.34 | 0.34 | 94 | 1008.8 |
| 20260505013053 | 62 | 140 | 10.4 | 21.7 | 0.00 | 0.34 | 0.34 | 95 | 1009.1 |
| 20260505011555 | 62 | 139 | 8.7 | 17.4 | 0.00 | 0.34 | 0.34 | 95 | 1009.3 |
| 20260505010032 | 62 | 136 | 8.7 | 18.2 | 0.01 | 0.34 | 0.34 | 95 | 1009.6 |
| 20260505004534 | 62 | 133 | 7.8 | 15.6 | 0.02 | 0.34 | 0.34 | 95 | 1010.0 |
| 20260505003011 | 62 | 140 | 8.7 | 15.6 | 0.04 | 0.34 | 0.34 | 95 | 1010.0 |
| 20260505001507 | 61 | 142 | 7.0 | 13.9 | 0.08 | 0.34 | 0.34 | 94 | 1010.3 |
| 20260505000113 | 61 | 140 | 7.0 | 14.8 | 0.10 | 0.33 | 0.33 | 94 | 1010.5 |
| 20260504234546 | 61 | 138 | 7.0 | 17.4 | 0.14 | 0.32 | 0.32 | 94 | 1010.9 |
| 20260504233045 | 61 | 148 | 5.2 | 10.4 | 0.14 | 0.30 | 0.30 | 94 | 1011.2 |
| 20260504231524 | 61 | 171 | 3.5 | 7.8 | 0.11 | 0.26 | 0.26 | 94 | 1011.6 |
| 20260504230026 | 61 | 172 | 4.3 | 9.6 | 0.07 | 0.22 | 0.22 | 94 | 1011.8 |
| 20260504224512 | 61 | 179 | 4.3 | 8.7 | 0.04 | 0.18 | 0.18 | 93 | 1011.8 |
| 20260504223011 | 61 | 163 | 6.1 | 11.3 | 0.03 | 0.16 | 0.16 | 93 | 1011.9 |
| 20260504221514 | 61 | 144 | 6.1 | 12.2 | 0.03 | 0.15 | 0.15 | 93 | 1011.8 |
| 20260504220009 | 61 | 137 | 6.1 | 17.4 | 0.08 | 0.15 | 0.15 | 93 | 1011.8 |
| 20260504214507 | 61 | 134 | 7.0 | 13.9 | 0.12 | 0.14 | 0.14 | 92 | 1012.2 |
| 20260504213008 | 61 | 137 | 6.1 | 15.6 | 0.12 | 0.13 | 0.13 | 92 | 1012.2 |
| 20260504211506 | 61 | 149 | 4.3 | 10.4 | 0.11 | 0.12 | 0.12 | 91 | 1012.7 |
| 20260504210005 | 62 | 136 | 7.8 | 12.2 | 0.05 | 0.06 | 0.06 | 89 | 1012.7 |
| 20260504204545 | 63 | 136 | 3.5 | 10.4 | 0.01 | 0.02 | 0.02 | 88 | 1013.0 |
| 20260504203045 | 63 | 148 | 4.3 | 15.6 | 0.00 | 0.01 | 0.01 | 87 | 1013.3 |
| 20260504201527 | 63 | 140 | 7.8 | 14.8 | 0.00 | 0.01 | 0.01 | 88 | 1013.0 |
| 20260504200037 | 63 | 142 | 7.8 | 17.4 | 0.00 | 0.01 | 0.01 | 88 | 1012.7 |
| 20260504194509 | 63 | 132 | 10.4 | 21.7 | 0.00 | 0.01 | 0.01 | 88 | 1012.6 |
| 20260504193008 | 63 | 140 | 8.7 | 20.0 | 0.00 | 0.01 | 0.01 | 88 | 1012.4 |
| 20260504191556 | 63 | 137 | 10.4 | 20.9 | 0.00 | 0.01 | 0.01 | 88 | 1012.2 |
| 20260504190100 | 63 | 142 | 9.6 | 18.2 | 0.00 | 0.01 | 0.01 | 88 | 1012.2 |
| 20260504184551 | 63 | 136 | 9.6 | 19.1 | 0.00 | 0.01 | 0.01 | 87 | 1012.2 |
| 20260504183047 | 63 | 148 | 7.8 | 19.1 | 0.00 | 0.01 | 0.01 | 86 | 1012.2 |
| 20260504181544 | 63 | 141 | 9.6 | 21.7 | 0.00 | 0.01 | 0.01 | 86 | 1012.2 |
| 20260504180037 | 64 | 145 | 9.6 | 19.1 | 0.00 | 0.01 | 0.01 | 86 | 1012.2 |
| 20260504174535 | 64 | 144 | 10.4 | 23.5 | 0.00 | 0.01 | 0.01 | 85 | 1012.2 |
| 20260504173036 | 64 | 151 | 9.6 | 22.6 | 0.00 | 0.01 | 0.01 | 85 | 1012.1 |
| 20260504171534 | 65 | 142 | 11.3 | 22.6 | 0.00 | 0.01 | 0.01 | 85 | 1012.3 |
| 20260504081531 | 66 | 140 | 8.7 | 24.3 | 0.00 | 0.00 | 0.00 | 73 | 1014.2 |
| 20260504044512 | 61 | 161 | 4.3 | 8.7 | 0.00 | 0.00 | 0.00 | 76 | 1014.0 |
| 20260504043004 | 61 | 163 | 5.2 | 7.8 | 0.00 | 0.00 | 0.00 | 76 | 1013.9 |